Torna al catalogo

HAWK-3B

AttivoScienzaPO
NORAD 48931·PAYLOAD·🇺🇸 United States

Lanciato Jun 30, 2021 da Cape Canaveral Space Force Station

Loading…

Prossimi Passaggi (prossime 24 ore)

TLE

AggiornatoSource: Space-Track

Epoca: Sep 14, 2026, 08:47 UTC

1 48931U 21059BE  26257.36647962  .00051561  00000-0  31252-3 0  9991
2 48931  97.6553 103.0090 0003349   9.8927 350.2404 15.77414495291871

Traccia HAWK-3B in tempo reale con AllMySat

Download on the App Store